Lid_Strength_Index
12 15 17 15 12 13 13 13 14 14 12 13 13 13 12 11 12 12 12 11 11 10 9 8 6 4 4 3 2 1 1 1 1 1 1 1 1 1 1 1 2 2 2 2
14 17 13 11 10 11 14 15 15 14 12 13 14 13 12 12 12 11 11 11 10 10 9 9 9 6 4 4 3 2 2 2 1 1 1 1 1 0 0 1 1 2 2 2
15 13 10 10 12 13 13 14 15 15 13 13 14 16 14 12 11 11 10 9 10 9 9 9 9 8 5 4 4 3 2 1 1 2 2 2 2 1 2 1 1 1 1 2
13 11 11 12 12 12 15 12 12 13 16 18 16 20 16 13 13 12 10 10 10 10 10 10 9 9 8 6 6 4 4 2 1 1 2 2 2 3 2 1 0 1 1 2
14 13 13 13 12 11 13 11 12 13 15 17 17 18 16 15 15 12 12 12 11 11 11 10 10 9 9 9 9 9 9 7 5 2 2 3 3 2 3 2 1 1 1 1
13 12 12 12 11 11 11 12 13 14 15 19 17 17 18 16 14 13 13 12 12 11 11 10 9 8 8 7 7 7 8 8 9 8 3 3 3 2 2 2 2 1 1 1
15 14 13 12 13 12 13 15 19 20 20 20 17 19 16 14 13 13 13 13 12 11 11 10 9 9 8 7 6 6 7 8 8 8 5 3 3 3 3 2 2 1 2 2
16 18 14 12 13 14 14 14 18 21 21 20 18 20 16 13 12 13 13 12 11 11 10 10 9 9 8 8 7 6 6 7 8 8 6 3 4 4 4 1 1 1 2 2
17 16 13 12 11 11 14 15 13 17 22 20 19 17 14 13 13 14 13 11 11 10 10 9 9 8 8 6 6 5 5 5 5 4 4 3 2 3 3 3 2 2 3 4
14 16 13 12 11 11 13 11 16 17 23 24 21 20 18 15 14 13 13 12 12 11 10 9 9 8 8 7 6 5 5 5 5 5 4 5 5 4 4 3 4 4 6 6
12 14 15 13 14 14 14 14 14 14 16 20 23 20 16 14 13 13 12 12 12 10 9 9 9 8 8 8 6 6 5 5 6 6 6 6 6 6 4 4 5 6 7 6
11 13 17 15 12 11 11 13 12 16 19 18 18 18 14 13 13 12 12 12 12 10 10 10 9 9 9 8 7 7 6 5 4 5 5 6 5 5 4 4 5 5 6 6
12 15 19 17 15 14 15 14 14 14 16 18 21 18 13 14 13 13 12 11 10 10 10 10 10 9 9 8 8 7 7 6 4 4 4 4 4 4 5 6 6 7 7 9
9 15 17 18 18 15 16 15 14 14 17 18 18 16 15 14 13 12 12 11 10 10 10 10 10 9 9 8 8 8 8 7 6 4 5 6 6 6 7 7 8 9 9 11
11 16 15 15 15 15 16 16 15 15 15 17 15 16 14 14 13 13 12 11 11 11 11 11 11 10 9 9 9 8 8 8 8 8 8 9 9 9 10 11 11 12 12 13
12 18 16 18 15 15 17 15 14 14 14 14 14 15 11 13 13 13 11 11 11 11 11 10 10 9 9 9 10 9 9 9 9 10 10 11 11 13 13 13 13 13 13 13
13 17 20 21 15 17 20 15 14 14 13 13 15 13 13 13 13 12 11 10 10 10 10 10 10 9 10 10 9 10 10 10 11 12 13 13 14 13 14 14 14 14 14 14
16 16 19 22 20 21 14 13 12 13 12 12 12 11 12 11 11 11 11 10 10 10 10 10 9 9 10 10 11 11 11 13 14 14 14 14 14 14 14 14 15 15 15 15
12 14 17 19 27 18 14 14 14 15 14 11 12 11 11 12 12 12 11 10 9 9 9 9 9 10 11 11 11 13 14 14 14 15 15 14 15 15 15 16 16 17 16 16
13 12 14 24 22 23 17 14 11 12 15 12 11 10 10 12 13 11 10 10 9 9 10 10 10 11 12 12 13 13 14 15 15 15 15 16 16 16 16 16 16 16 15 15
17 17 16 19 20 19 14 14 11 17 16 13 12 11 12 12 10 11 10 11 11 11 12 12 12 12 12 13 13 14 15 15 15 16 16 17 16 16 15 15 16 16 16 17
14 15 16 17 17 18 14 13 13 13 14 12 13 12 12 12 12 12 12 12 12 13 14 14 14 14 14 14 14 15 16 16 16 17 17 17 16 15 15 15 16 17 19 19
15 14 16 14 15 14 15 14 13 12 13 13 12 12 12 13 13 13 13 13 14 14 15 15 15 15 16 15 15 16 17 16 17 18 18 16 16 16 16 18 19 17 19 20
14 15 15 15 14 15 13 14 14 13 13 13 13 13 13 13 13 14 14 14 15 15 16 17 16 17 18 18 17 17 17 18 18 17 17 17 18 19 17 16 18 20 21 22
14 14 16 17 15 14 14 12 12 13 14 14 14 14 14 13 14 14 14 15 15 16 17 18 17 18 20 20 21 21 21 20 18 17 19 20 18 20 20 19 20 20 21 20
14 14 15 15 13 13 14 12 12 13 13 13 13 15 14 14 14 14 15 15 16 17 18 19 20 20 22 22 24 25 26 20 18 19 19 19 18 19 20 21 21 14 14 13